STARLINK-2654 (48454 NORAD) Tracking and Keplerian Element Data

This shows tracking and keplerian element data for the satellite.

Feedback or suggestion? Click here.




ElementValue
Catalog48454
NameSTARLINK-2654
Epoch Orbit367
Epoch Day214.91667824
Epoch Year2021
RAAN162.8083
Inclination53.0475
Eccentricity0.0001263
Argument of Perigee67.0361
Mean Anonmoly321.0193
Mean Motion15.21958609
Decay Rate-0.0083628
L11 48454U 21040AC 21214.91667824 -.00836280 00000-0 -39275-1 0 9991
L22 48454 53.0475 162.8083 0001263 67.0361 321.0193 15.21958609 3675

Live tracking and technical data element details for STARLINK-2654 (NORAD 48454). STARLINK-2654 can be tracked NOW for your location showing map with azimuth and elevation plus other details from your city location.

Track the satellite on the map from your city or location and see movement details for azimuth, elevation, latitude, longitude, range, height, and movement on the map or in text.







IsCatalogInMostPopularTable: catalog: 48454, numindb: 25
Update: records affected: 1



GetName: 48454 STARLINK-2654

Hit Count: updated at: Tue, 03 Aug 2021 20:56:53 GMT